GW4194 Weather Reports


Display with metric or nautical units.
time (UTC)temp
F
wind
direction
speed
MPH
gust
MPH
rain 1hr
in
rain 24hr
in
rain mn
in
humidity
%
barometer
mb
20260508160059 65 194 6.0 11.0 0.00 0.00 0.00 37 1017.7
20260508154604 64 138 5.0 10.0 0.00 0.00 0.00 43 1017.7
20260508153057 63 160 2.0 8.0 0.00 0.00 0.00 44 1017.7
20260508151602 62 208 4.0 10.0 0.00 0.00 0.00 43 1017.7
20260508150059 61 207 4.0 10.0 0.00 0.00 0.00 43 1017.7
20260508144558 61 207 3.0 9.0 0.00 0.00 0.00 46 1017.6
20260508143108 58 175 4.0 10.0 0.00 0.00 0.00 50 1017.7
20260508141558 57 157 4.0 11.0 0.00 0.00 0.00 53 1017.8
20260508140108 55 190 3.0 7.0 0.00 0.00 0.00 59 1017.9
20260508134606 53 188 2.0 5.0 0.00 0.00 0.00 66 1018.0
20260508133057 51 158 2.0 6.0 0.00 0.00 0.00 71 1018.0
20260508131600 50 139 2.0 5.0 0.00 0.00 0.00 76 1018.1
20260508130057 48 150 2.0 6.0 0.00 0.00 0.00 81 1018.3
20260508124555 45 153 0.0 3.0 0.00 0.00 0.00 85 1018.4
20260508123058 42 153 0.0 3.0 0.00 0.00 0.00 90 1018.2
20260508121558 41 0 0.0 3.0 0.00 0.00 0.00 91 1018.2
20260508114610 38 225 2.0 4.0 0.00 0.00 0.00 91 1018.0
20260508113106 37 240 2.0 4.0 0.00 0.00 0.00 92 1018.0
20260508111610 37 215 1.0 4.0 0.00 0.00 0.00 92 1017.9
20260508110100 36 211 2.0 5.0 0.00 0.00 0.00 91 1017.9
20260508104601 36 207 2.0 4.0 0.00 0.00 0.00 91 1017.6
20260508103059 36 205 1.0 4.0 0.00 0.00 0.00 91 1017.4
20260508101606 36 205 2.0 5.0 0.00 0.00 0.00 91 1017.4
20260508100101 37 215 1.0 4.0 0.00 0.00 0.00 90 1017.2
20260508094600 37 215 1.0 4.0 0.00 0.00 0.00 91 1017.2
20260508093105 37 0 1.0 3.0 0.00 0.00 0.00 91 1017.3
20260508091611 37 200 1.0 5.0 0.00 0.00 0.00 91 1017.3
20260508090114 37 198 1.0 4.0 0.00 0.00 0.00 91 1017.2
20260508084557 38 209 1.0 5.0 0.00 0.00 0.00 91 1017.2
20260508083108 38 207 2.0 4.0 0.00 0.00 0.00 90 1017.1
20260508081606 38 0 0.0 3.0 0.00 0.00 0.00 90 1017.0
20260508074605 38 193 2.0 4.0 0.00 0.00 0.00 90 1017.0
20260508073056 38 0 1.0 3.0 0.00 0.00 0.00 90 1017.0
20260508071556 39 0 0.0 3.0 0.00 0.00 0.00 90 1016.8
20260508070101 39 205 2.0 4.0 0.00 0.00 0.00 90 1016.8
20260508064559 39 0 0.0 0.0 0.00 0.00 0.00 90 1016.8
20260508063102 39 219 1.0 3.0 0.00 0.00 0.00 89 1017.1
20260508061601 39 207 1.0 4.0 0.00 0.00 0.00 89 1017.1
20260508060057 40 0 0.0 3.0 0.00 0.00 0.00 89 1017.3
20260508054559 40 230 0.0 4.0 0.00 0.00 0.00 88 1017.2
20260508053106 40 198 0.0 3.0 0.00 0.00 0.00 88 1017.0
20260508051607 41 208 1.0 3.0 0.00 0.00 0.00 88 1017.0
20260508050058 41 196 1.0 3.0 0.00 0.00 0.00 88 1017.0
20260508044559 41 230 0.0 3.0 0.00 0.00 0.00 87 1017.0
20260508043056 42 221 0.0 3.0 0.00 0.00 0.00 86 1017.1
20260508041557 42 0 0.0 0.0 0.00 0.00 0.00 86 1017.1
20260508040057 43 0 0.0 0.0 0.00 0.00 0.00 85 1017.2
20260508034601 43 0 0.0 0.0 0.00 0.00 0.00 84 1017.1
20260508033104 43 0 0.0 0.0 0.00 0.00 0.00 85 1017.0
20260508031603 44 0 0.0 0.0 0.00 0.00 0.00 82 1017.0
20260508030057 45 0 0.0 0.0 0.00 0.00 0.00 81 1017.0
20260508024605 45 0 0.0 0.0 0.00 0.00 0.00 81 1016.8
20260508023100 45 0 0.0 0.0 0.00 0.00 0.00 81 1016.4
20260508021616 46 0 0.0 0.0 0.00 0.00 0.00 77 1016.3
20260508020059 47 0 0.0 0.0 0.00 0.00 0.00 74 1016.1
20260508014600 48 0 0.0 0.0 0.00 0.00 0.00 71 1016.1
20260508013100 49 0 0.0 0.0 0.00 0.00 0.00 68 1015.6
20260508011609 51 0 0.0 0.0 0.00 0.00 0.00 64 1015.4
20260508010140 53 0 0.0 0.0 0.00 0.00 0.00 58 1015.3
20260508004600 53 0 0.0 0.0 0.00 0.00 0.00 56 1015.2
20260508003055 55 0 0.0 0.0 0.00 0.00 0.00 48 1015.0
20260508001557 57 0 0.0 0.0 0.00 0.00 0.00 40 1014.8
20260508000100 58 0 0.0 2.0 0.00 0.00 0.00 38 1014.9
20260507234558 58 271 0.0 2.0 0.00 0.00 0.00 38 1014.5
20260507233057 59 0 0.0 3.0 0.00 0.00 0.00 39 1014.3
20260507231558 60 352 2.0 6.0 0.00 0.00 0.00 36 1014.3
20260507230058 60 0 0.0 3.0 0.00 0.00 0.00 38 1014.3
20260507224559 61 337 1.0 7.0 0.00 0.00 0.00 37 1014.3
20260507223059 62 350 3.0 9.0 0.00 0.00 0.00 40 1014.2
20260507221555 62 53 2.0 9.0 0.00 0.00 0.00 42 1014.1
20260507220056 62 344 1.0 8.0 0.00 0.00 0.00 38 1013.9
20260507214557 62 352 2.0 5.0 0.00 0.00 0.00 41 1013.9
20260507213100 62 345 1.0 4.0 0.00 0.00 0.00 45 1013.8
20260507211600 62 333 3.0 6.0 0.00 0.00 0.00 41 1013.5
20260507210057 62 287 1.0 8.0 0.00 0.00 0.00 45 1013.5
20260507204558 63 328 3.0 8.0 0.00 0.00 0.00 44 1013.5
20260507203056 63 346 0.0 5.0 0.00 0.00 0.00 44 1013.3
20260507201608 64 17 2.0 6.0 0.00 0.00 0.00 44 1013.3
20260507200103 61 0 1.0 11.0 0.00 0.00 0.00 45 1013.3
20260507194557 62 344 2.0 8.0 0.00 0.00 0.00 46 1013.6
20260507193056 63 9 3.0 8.0 0.00 0.00 0.00 43 1013.7
20260507191600 61 27 0.0 6.0 0.00 0.00 0.00 48 1013.7
20260507190056 61 25 2.0 7.0 0.00 0.00 0.00 48 1013.9
20260507184602 63 272 5.0 8.0 0.00 0.00 0.00 43 1013.8
20260507183057 62 319 1.0 9.0 0.00 0.00 0.00 50 1014.1
20260507181555 61 14 3.0 8.0 0.00 0.00 0.00 48 1014.3
20260507180057 60 355 2.0 8.0 0.00 0.00 0.00 48 1014.1
20260507174606 61 264 4.0 10.0 0.00 0.01 0.00 48 1014.1
20260507173059 59 25 2.0 6.0 0.00 0.01 0.00 54 1014.4
20260507171604 62 221 2.0 10.0 0.00 0.01 0.00 48 1014.5
20260507170057 60 352 3.0 5.0 0.00 0.01 0.00 51 1014.9
20260507164557 59 352 1.0 7.0 0.00 0.02 0.00 60 1015.0
20260507163108 59 330 0.0 7.0 0.00 0.02 0.00 55 1015.0
20260507161557 58 330 2.0 7.0 0.00 0.02 0.00 58 1015.0